Carlsbad, CA

5:13 PM PST on January 20, 2018 (GMT -0800)
McClellan-Palomar

Weather History for KCRQ - September, 2012

Change the Weather History Date:

Sunday, September 2, 2012

  Actual Average Record
Temperature  
Mean Temperature 69 °F -  
Max Temperature 78 °F 73 °F 91 °F (2007)
Min Temperature 63 °F 62 °F 59 °F (1999)
Cooling Degree Days 4    
Growing Degree Days 19 (Base 50)    
Moisture  
Dew Point 60 °F    
Average Humidity 72    
Maximum Humidity 87    
Minimum Humidity 51    
Precipitation  
Precipitation 0.00 in - - ()
Sea Level Pressure  
Sea Level Pressure 29.89 in    
Wind  
Wind Speed 2 mph (West)    
Max Wind Speed 9 mph    
Max Gust Speed -    
Visibility 10 miles    
Events      
Averages and records for this station are not official NWS values.
T = Trace of Precipitation, MM = Missing Value Source: NWS Daily Summary

Daily Weather History Graph

Daily Weather History Graph

Search for Another Location

Airport or City:

Trip Planner

Search our weather history database for the weather conditions in past years. The results will help you decide how hot, cold, wet, or windy it might be!

Date:

Astronomy

Sep. 02, 2012 Rise Set
Actual Time 6:24 AM PDT 7:12 PM PDT
Civil Twilight 5:59 AM PDT 7:37 PM PDT
Nautical Twilight 5:29 AM PDT 8:06 PM PDT
Astronomical Twilight 4:59 AM PDT 8:37 PM PDT
Moon 8:13 PM PDT (9/2) 8:27 AM PDT (9/2)
Length of Visible Light 13h 37m
Length of Day
12h 47m
Waning Gibbous, 95% of the Moon is Illuminated
Sep 2
Waning Gibbous
Sep 8
Last Quarter
Sep 15
New
Sep 22
First Quarter
Sep 29
Full

Hourly Weather History & Observations

Time (PDT) Temp. Dew Point Humidity Pressure Visibility Wind Dir Wind Speed Gust Speed Precip Events Conditions
12:53 AM 68.0 °F 61.0 °F 78% 29.89 in 10.0 mi Calm Calm - N/A   Clear
1:53 AM 66.0 °F 60.1 °F 81% 29.88 in 10.0 mi SE 3.5 mph - N/A   Clear
2:53 AM 66.9 °F 60.1 °F 79% 29.87 in 10.0 mi Calm Calm - N/A   Clear
3:53 AM 64.9 °F 60.1 °F 84% 29.87 in 10.0 mi Calm Calm - N/A   Clear
4:53 AM 64.0 °F 55.0 °F 73% 29.87 in 10.0 mi Calm Calm - N/A   Clear
5:53 AM 63.0 °F 53.1 °F 70% 29.88 in 10.0 mi Calm Calm - N/A   Clear
6:53 AM 64.0 °F 51.1 °F 63% 29.90 in 10.0 mi Calm Calm - N/A   Clear
7:53 AM 64.0 °F 53.1 °F 67% 29.91 in 10.0 mi Calm Calm - N/A   Clear
8:53 AM 69.1 °F 54.0 °F 58% 29.92 in 10.0 mi Calm Calm - N/A   Clear
9:53 AM 72.0 °F 57.9 °F 61% 29.93 in 10.0 mi WNW 3.5 mph - N/A   Clear
10:53 AM 75.0 °F 55.9 °F 51% 29.92 in 10.0 mi NW 3.5 mph - N/A   Clear
11:53 AM 75.2 °F 60.8 °F 61% 29.92 in 10.0 mi WSW 9.2 mph - N/A   Clear
12:53 PM 75.9 °F 59.0 °F 56% 29.91 in 10.0 mi Variable 6.9 mph - N/A   Clear
1:53 PM 75.9 °F 63.0 °F 64% 29.90 in 10.0 mi WNW 5.8 mph - N/A   Clear
2:53 PM 75.9 °F 61.0 °F 60% 29.88 in 10.0 mi WNW 6.9 mph - N/A   Clear
3:53 PM 75.0 °F 63.0 °F 66% 29.87 in 10.0 mi West 8.1 mph - N/A   Clear
4:53 PM 73.9 °F 64.0 °F 71% 29.87 in 10.0 mi Variable 5.8 mph - N/A   Clear
5:53 PM 73.0 °F 64.9 °F 76% 29.86 in 10.0 mi Variable 3.5 mph - N/A   Clear
6:53 PM 71.1 °F 64.0 °F 78% 29.86 in 9.0 mi West 3.5 mph - N/A   Clear
7:53 PM 70.0 °F 64.0 °F 81% 29.88 in 9.0 mi Calm Calm - N/A   Clear
8:53 PM 69.1 °F 64.9 °F 87% 29.90 in 6.0 mi Calm Calm - N/A   Partly Cloudy
9:53 PM 69.1 °F 64.0 °F 84% 29.91 in 9.0 mi Calm Calm - N/A   Clear
10:53 PM 68.0 °F 64.0 °F 87% 29.91 in 8.0 mi Calm Calm - N/A   Clear
11:53 PM 68.0 °F 64.0 °F 87% 29.91 in 8.0 mi Calm Calm - N/A   Clear